owner,sensor,date,latitude,longitude,vertical_datum,mass_concentration_of_oxygen_in_sea_water,qcFlag 
DISL,ioos:station:DISL:KATA:1,2015-06-01T00:00:00Z,30.2583,-88.2131,3.882,5.39,1111122 
DISL,ioos:station:DISL:KATA:1,2015-06-01T00:30:00Z,30.2583,-88.2131,3.878,5.35,1111122 
DISL,ioos:station:DISL:KATA:1,2015-06-01T01:00:00Z,30.2583,-88.2131,3.875,5.49,1111122 
DISL,ioos:station:DISL:KATA:1,2015-06-01T01:30:00Z,30.2583,-88.2131,3.863,6.07,1111122 
DISL,ioos:station:DISL:KATA:1,2015-06-01T02:00:00Z,30.2583,-88.2131,3.852,5.93,1111122 
DISL,ioos:station:DISL:KATA:1,2015-06-01T02:30:00Z,30.2583,-88.2131,3.853,6.28,1111122 
DISL,ioos:station:DISL:KATA:1,2015-06-01T03:00:00Z,30.2583,-88.2131,3.868,6.4,1111122 
DISL,ioos:station:DISL:KATA:1,2015-06-01T03:30:00Z,30.2583,-88.2131,3.902,6.46,1111122 
DISL,ioos:station:DISL:KATA:1,2015-06-01T04:00:00Z,30.2583,-88.2131,3.937,6.57,1111122 
DISL,ioos:station:DISL:KATA:1,2015-06-01T04:30:00Z,30.2583,-88.2131,3.963,6.53,1111122 
DISL,ioos:station:DISL:KATA:1,2015-06-01T05:00:00Z,30.2583,-88.2131,3.985,6.37,1111122 
DISL,ioos:station:DISL:KATA:1,2015-06-01T05:30:00Z,30.2583,-88.2131,3.992,6.03,1111122 
DISL,ioos:station:DISL:KATA:1,2015-06-01T06:00:00Z,30.2583,-88.2131,3.975,6.26,1111122 
DISL,ioos:station:DISL:KATA:1,2015-06-01T06:30:00Z,30.2583,-88.2131,3.988,6.14,1111122 
DISL,ioos:station:DISL:KATA:1,2015-06-01T07:00:00Z,30.2583,-88.2131,4.012,5.95,1111122 
DISL,ioos:station:DISL:KATA:1,2015-06-01T07:30:00Z,30.2583,-88.2131,4.036,5.93,1111122 
DISL,ioos:station:DISL:KATA:1,2015-06-01T08:00:00Z,30.2583,-88.2131,4.041,5.92,1111122 
DISL,ioos:station:DISL:KATA:1,2015-06-01T08:30:00Z,30.2583,-88.2131,4.062,5.99,1111122 
DISL,ioos:station:DISL:KATA:1,2015-06-01T09:00:00Z,30.2583,-88.2131,4.081,5.99,1111122 
DISL,ioos:station:DISL:KATA:1,2015-06-01T09:30:00Z,30.2583,-88.2131,4.112,6.02,1111122 
DISL,ioos:station:DISL:KATA:1,2015-06-01T10:00:00Z,30.2583,-88.2131,4.157,5.92,1111122 
DISL,ioos:station:DISL:KATA:1,2015-06-01T10:30:00Z,30.2583,-88.2131,4.191,6.04,1111122 
DISL,ioos:station:DISL:KATA:1,2015-06-01T11:00:00Z,30.2583,-88.2131,4.236,5.93,1111122 
DISL,ioos:station:DISL:KATA:1,2015-06-01T11:30:00Z,30.2583,-88.2131,4.266,5.87,1111122 
DISL,ioos:station:DISL:KATA:1,2015-06-01T12:00:00Z,30.2583,-88.2131,4.293,5.96,1111122 
DISL,ioos:station:DISL:KATA:1,2015-06-01T12:30:00Z,30.2583,-88.2131,4.326,5.95,1111122 
DISL,ioos:station:DISL:KATA:1,2015-06-01T13:00:00Z,30.2583,-88.2131,4.338,5.91,1111122 
DISL,ioos:station:DISL:KATA:1,2015-06-01T13:30:00Z,30.2583,-88.2131,4.345,5.9,1111122 
DISL,ioos:station:DISL:KATA:1,2015-06-01T14:00:00Z,30.2583,-88.2131,4.335,5.71,1111122 
DISL,ioos:station:DISL:KATA:1,2015-06-01T14:30:00Z,30.2583,-88.2131,4.312,5.48,1111122 
DISL,ioos:station:DISL:KATA:1,2015-06-01T15:00:00Z,30.2583,-88.2131,4.293,5.28,1111122 
DISL,ioos:station:DISL:KATA:1,2015-06-01T15:30:00Z,30.2583,-88.2131,4.299,5.48,1111122 
DISL,ioos:station:DISL:KATA:1,2015-06-01T16:00:00Z,30.2583,-88.2131,4.284,5.34,1111122 
DISL,ioos:station:DISL:KATA:1,2015-06-01T16:30:00Z,30.2583,-88.2131,4.264,5.59,1111122 
DISL,ioos:station:DISL:KATA:1,2015-06-01T17:00:00Z,30.2583,-88.2131,4.255,5.66,1111122 
DISL,ioos:station:DISL:KATA:1,2015-06-01T17:30:00Z,30.2583,-88.2131,4.235,5.67,1111122 
DISL,ioos:station:DISL:KATA:1,2015-06-01T18:00:00Z,30.2583,-88.2131,4.208,5.68,1111122 
DISL,ioos:station:DISL:KATA:1,2015-06-01T18:30:00Z,30.2583,-88.2131,4.177,5.64,1111122 
DISL,ioos:station:DISL:KATA:1,2015-06-01T19:00:00Z,30.2583,-88.2131,4.127,5.75,1111122 
DISL,ioos:station:DISL:KATA:1,2015-06-01T19:30:00Z,30.2583,-88.2131,4.072,5.82,1111122 
DISL,ioos:station:DISL:KATA:1,2015-06-01T20:00:00Z,30.2583,-88.2131,4.014,6.07,1111122 
DISL,ioos:station:DISL:KATA:1,2015-06-01T20:30:00Z,30.2583,-88.2131,3.951,6.02,1111122 
DISL,ioos:station:DISL:KATA:1,2015-06-01T21:00:00Z,30.2583,-88.2131,3.907,6.1,1111122 
DISL,ioos:station:DISL:KATA:1,2015-06-01T21:30:00Z,30.2583,-88.2131,3.873,6.17,1111122 
DISL,ioos:station:DISL:KATA:1,2015-06-01T22:00:00Z,30.2583,-88.2131,3.832,6.45,1111122 
DISL,ioos:station:DISL:KATA:1,2015-06-01T22:30:00Z,30.2583,-88.2131,3.804,6.62,1111122 
DISL,ioos:station:DISL:KATA:1,2015-06-01T23:00:00Z,30.2583,-88.2131,3.769,6.37,1111122 
DISL,ioos:station:DISL:KATA:1,2015-06-01T23:30:00Z,30.2583,-88.2131,3.741,6.28,1111122 
DISL,ioos:station:DISL:KATA:1,2015-06-02T00:00:00Z,30.2583,-88.2131,3.744,5.89,1111122 
DISL,ioos:station:DISL:KATA:1,2015-06-02T00:30:00Z,30.2583,-88.2131,3.757,5.84,1111122 
DISL,ioos:station:DISL:KATA:1,2015-06-02T01:00:00Z,30.2583,-88.2131,3.764,5.8,1111122 
DISL,ioos:station:DISL:KATA:1,2015-06-02T01:30:00Z,30.2583,-88.2131,3.768,5.77,1111122 
DISL,ioos:station:DISL:KATA:1,2015-06-02T02:00:00Z,30.2583,-88.2131,3.772,5.57,1111122 
DISL,ioos:station:DISL:KATA:1,2015-06-02T02:30:00Z,30.2583,-88.2131,3.784,5.62,1111122 
DISL,ioos:station:DISL:KATA:1,2015-06-02T03:00:00Z,30.2583,-88.2131,3.81,5.67,1111122 
DISL,ioos:station:DISL:KATA:1,2015-06-02T03:30:00Z,30.2583,-88.2131,3.841,5.51,1111122 
DISL,ioos:station:DISL:KATA:1,2015-06-02T04:00:00Z,30.2583,-88.2131,3.878,5.59,1111122 
DISL,ioos:station:DISL:KATA:1,2015-06-02T04:30:00Z,30.2583,-88.2131,3.923,5.63,1111122 
DISL,ioos:station:DISL:KATA:1,2015-06-02T05:00:00Z,30.2583,-88.2131,3.959,5.55,1111122 
DISL,ioos:station:DISL:KATA:1,2015-06-02T05:30:00Z,30.2583,-88.2131,3.986,5.7,1111122 
DISL,ioos:station:DISL:KATA:1,2015-06-02T06:00:00Z,30.2583,-88.2131,4.008,5.66,1111122 
DISL,ioos:station:DISL:KATA:1,2015-06-02T06:30:00Z,30.2583,-88.2131,4.033,5.52,1111122 
DISL,ioos:station:DISL:KATA:1,2015-06-02T07:00:00Z,30.2583,-88.2131,4.044,5.36,1111122 
DISL,ioos:station:DISL:KATA:1,2015-06-02T07:30:00Z,30.2583,-88.2131,4.049,5.44,1111122 
DISL,ioos:station:DISL:KATA:1,2015-06-02T08:00:00Z,30.2583,-88.2131,4.075,5.43,1111122 
DISL,ioos:station:DISL:KATA:1,2015-06-02T08:30:00Z,30.2583,-88.2131,4.098,5.44,1111122 
DISL,ioos:station:DISL:KATA:1,2015-06-02T09:00:00Z,30.2583,-88.2131,4.135,5.57,1111122 
DISL,ioos:station:DISL:KATA:1,2015-06-02T09:30:00Z,30.2583,-88.2131,4.222,5.6,1111122 
DISL,ioos:station:DISL:KATA:1,2015-06-02T10:00:00Z,30.2583,-88.2131,4.231,6.08,1111122 
DISL,ioos:station:DISL:KATA:1,2015-06-02T10:30:00Z,30.2583,-88.2131,4.201,6.05,1111122 
DISL,ioos:station:DISL:KATA:1,2015-06-02T11:00:00Z,30.2583,-88.2131,4.201,6.02,1111122 
DISL,ioos:station:DISL:KATA:1,2015-06-02T11:30:00Z,30.2583,-88.2131,4.207,5.96,1111122 
DISL,ioos:station:DISL:KATA:1,2015-06-02T12:00:00Z,30.2583,-88.2131,4.244,6.09,1111122 
DISL,ioos:station:DISL:KATA:1,2015-06-02T12:30:00Z,30.2583,-88.2131,4.297,6.01,1111122 
DISL,ioos:station:DISL:KATA:1,2015-06-02T13:00:00Z,30.2583,-88.2131,4.331,5.98,1111122 
DISL,ioos:station:DISL:KATA:1,2015-06-02T13:30:00Z,30.2583,-88.2131,4.387,5.85,1111122 
DISL,ioos:station:DISL:KATA:1,2015-06-02T14:00:00Z,30.2583,-88.2131,4.406,5.86,1111122 
DISL,ioos:station:DISL:KATA:1,2015-06-02T14:30:00Z,30.2583,-88.2131,4.406,5.64,1111122 
DISL,ioos:station:DISL:KATA:1,2015-06-02T15:00:00Z,30.2583,-88.2131,4.396,5.64,1111122 
DISL,ioos:station:DISL:KATA:1,2015-06-02T15:30:00Z,30.2583,-88.2131,4.378,5.96,1111122 
DISL,ioos:station:DISL:KATA:1,2015-06-02T16:00:00Z,30.2583,-88.2131,4.35,6.06,1111122 
DISL,ioos:station:DISL:KATA:1,2015-06-02T16:30:00Z,30.2583,-88.2131,4.321,5.86,1111122 
DISL,ioos:station:DISL:KATA:1,2015-06-02T17:00:00Z,30.2583,-88.2131,4.285,5.99,1111122 
DISL,ioos:station:DISL:KATA:1,2015-06-02T17:30:00Z,30.2583,-88.2131,4.254,5.85,1111122 
DISL,ioos:station:DISL:KATA:1,2015-06-02T18:00:00Z,30.2583,-88.2131,4.228,5.69,1111122 
DISL,ioos:station:DISL:KATA:1,2015-06-02T18:30:00Z,30.2583,-88.2131,4.209,5.74,1111122 
DISL,ioos:station:DISL:KATA:1,2015-06-02T19:00:00Z,30.2583,-88.2131,4.176,5.88,1111122 
DISL,ioos:station:DISL:KATA:1,2015-06-02T19:30:00Z,30.2583,-88.2131,4.12,6.0,1111122 
DISL,ioos:station:DISL:KATA:1,2015-06-02T20:00:00Z,30.2583,-88.2131,4.072,5.91,1111122 
DISL,ioos:station:DISL:KATA:1,2015-06-02T20:30:00Z,30.2583,-88.2131,4.014,6.02,1111122 
DISL,ioos:station:DISL:KATA:1,2015-06-02T21:00:00Z,30.2583,-88.2131,3.966,5.89,1111122 
DISL,ioos:station:DISL:KATA:1,2015-06-02T21:30:00Z,30.2583,-88.2131,3.906,5.86,1111122 
DISL,ioos:station:DISL:KATA:1,2015-06-02T22:00:00Z,30.2583,-88.2131,3.859,5.92,1111122 
DISL,ioos:station:DISL:KATA:1,2015-06-02T22:30:00Z,30.2583,-88.2131,3.832,5.91,1111122 
DISL,ioos:station:DISL:KATA:1,2015-06-02T23:00:00Z,30.2583,-88.2131,3.803,5.4,1111122 
DISL,ioos:station:DISL:KATA:1,2015-06-02T23:30:00Z,30.2583,-88.2131,3.781,5.05,1111122 
DISL,ioos:station:DISL:KATA:1,2015-06-03T00:00:00Z,30.2583,-88.2131,3.774,4.85,1111122 
DISL,ioos:station:DISL:KATA:1,2015-06-03T00:30:00Z,30.2583,-88.2131,3.766,5.14,1111122 
DISL,ioos:station:DISL:KATA:1,2015-06-03T01:00:00Z,30.2583,-88.2131,3.757,5.2,1111122 
DISL,ioos:station:DISL:KATA:1,2015-06-03T01:30:00Z,30.2583,-88.2131,3.767,5.16,1111122 
DISL,ioos:station:DISL:KATA:1,2015-06-03T02:00:00Z,30.2583,-88.2131,3.783,5.22,1111122 
DISL,ioos:station:DISL:KATA:1,2015-06-03T02:30:00Z,30.2583,-88.2131,3.816,5.23,1111122 
DISL,ioos:station:DISL:KATA:1,2015-06-03T03:00:00Z,30.2583,-88.2131,3.838,5.16,1111122 
DISL,ioos:station:DISL:KATA:1,2015-06-03T03:30:00Z,30.2583,-88.2131,3.86,5.22,1111122 
DISL,ioos:station:DISL:KATA:1,2015-06-03T04:00:00Z,30.2583,-88.2131,3.88,5.29,1111122 
DISL,ioos:station:DISL:KATA:1,2015-06-03T04:30:00Z,30.2583,-88.2131,3.899,5.46,1111122 
DISL,ioos:station:DISL:KATA:1,2015-06-03T05:00:00Z,30.2583,-88.2131,3.923,5.36,1111122 
DISL,ioos:station:DISL:KATA:1,2015-06-03T05:30:00Z,30.2583,-88.2131,3.947,5.26,1111122 
DISL,ioos:station:DISL:KATA:1,2015-06-03T06:00:00Z,30.2583,-88.2131,3.959,5.26,1111122 
DISL,ioos:station:DISL:KATA:1,2015-06-03T06:30:00Z,30.2583,-88.2131,3.996,5.31,1111122 
DISL,ioos:station:DISL:KATA:1,2015-06-03T07:00:00Z,30.2583,-88.2131,4.013,5.32,1111122 
DISL,ioos:station:DISL:KATA:1,2015-06-03T07:30:00Z,30.2583,-88.2131,4.012,5.59,1111122 
DISL,ioos:station:DISL:KATA:1,2015-06-03T08:00:00Z,30.2583,-88.2131,4.028,5.77,1111122 
DISL,ioos:station:DISL:KATA:1,2015-06-03T08:30:00Z,30.2583,-88.2131,4.056,5.89,1111122 
DISL,ioos:station:DISL:KATA:1,2015-06-03T09:00:00Z,30.2583,-88.2131,4.09,6.08,1111122 
DISL,ioos:station:DISL:KATA:1,2015-06-03T09:30:00Z,30.2583,-88.2131,4.118,6.27,1111122 
DISL,ioos:station:DISL:KATA:1,2015-06-03T10:00:00Z,30.2583,-88.2131,4.149,6.2,1111122 
DISL,ioos:station:DISL:KATA:1,2015-06-03T10:30:00Z,30.2583,-88.2131,4.183,6.28,1111122 
DISL,ioos:station:DISL:KATA:1,2015-06-03T11:00:00Z,30.2583,-88.2131,4.205,6.3,1111122 
DISL,ioos:station:DISL:KATA:1,2015-06-03T11:30:00Z,30.2583,-88.2131,4.22,6.21,1111122 
DISL,ioos:station:DISL:KATA:1,2015-06-03T12:00:00Z,30.2583,-88.2131,4.209,6.18,1111122 
DISL,ioos:station:DISL:KATA:1,2015-06-03T12:30:00Z,30.2583,-88.2131,4.237,6.12,1111122 
DISL,ioos:station:DISL:KATA:1,2015-06-03T13:00:00Z,30.2583,-88.2131,4.271,6.1,1111122 
DISL,ioos:station:DISL:KATA:1,2015-06-03T13:30:00Z,30.2583,-88.2131,4.298,6.1,1111122 
DISL,ioos:station:DISL:KATA:1,2015-06-03T14:00:00Z,30.2583,-88.2131,4.341,6.02,1111122 
DISL,ioos:station:DISL:KATA:1,2015-06-03T14:30:00Z,30.2583,-88.2131,4.37,5.92,1111122 
DISL,ioos:station:DISL:KATA:1,2015-06-03T15:00:00Z,30.2583,-88.2131,4.383,5.78,1111122 
DISL,ioos:station:DISL:KATA:1,2015-06-03T15:30:00Z,30.2583,-88.2131,4.413,5.73,1111122 
DISL,ioos:station:DISL:KATA:1,2015-06-03T16:00:00Z,30.2583,-88.2131,4.413,5.65,1111122 
DISL,ioos:station:DISL:KATA:1,2015-06-03T16:30:00Z,30.2583,-88.2131,4.393,5.59,1111122 
DISL,ioos:station:DISL:KATA:1,2015-06-03T17:00:00Z,30.2583,-88.2131,4.373,5.39,1111122 
DISL,ioos:station:DISL:KATA:1,2015-06-03T17:30:00Z,30.2583,-88.2131,4.346,5.24,1111122 
DISL,ioos:station:DISL:KATA:1,2015-06-03T18:00:00Z,30.2583,-88.2131,4.325,5.29,1111122 
DISL,ioos:station:DISL:KATA:1,2015-06-03T18:30:00Z,30.2583,-88.2131,4.298,5.42,1111122 
DISL,ioos:station:DISL:KATA:1,2015-06-03T19:00:00Z,30.2583,-88.2131,4.262,5.43,1111122 
DISL,ioos:station:DISL:KATA:1,2015-06-03T19:30:00Z,30.2583,-88.2131,4.219,5.48,1111122 
DISL,ioos:station:DISL:KATA:1,2015-06-03T20:00:00Z,30.2583,-88.2131,4.17,5.43,1111122 
DISL,ioos:station:DISL:KATA:1,2015-06-03T20:30:00Z,30.2583,-88.2131,4.108,5.46,1111122 
DISL,ioos:station:DISL:KATA:1,2015-06-03T21:00:00Z,30.2583,-88.2131,4.062,5.53,1111122 
DISL,ioos:station:DISL:KATA:1,2015-06-03T21:30:00Z,30.2583,-88.2131,4.016,5.78,1111122 
DISL,ioos:station:DISL:KATA:1,2015-06-03T22:00:00Z,30.2583,-88.2131,3.961,5.93,1111122 
DISL,ioos:station:DISL:KATA:1,2015-06-03T22:30:00Z,30.2583,-88.2131,3.909,5.89,1111122 
DISL,ioos:station:DISL:KATA:1,2015-06-03T23:00:00Z,30.2583,-88.2131,3.866,6.16,1111122 
DISL,ioos:station:DISL:KATA:1,2015-06-03T23:30:00Z,30.2583,-88.2131,3.834,6.09,1111122 
DISL,ioos:station:DISL:KATA:1,2015-06-04T00:00:00Z,30.2583,-88.2131,3.798,5.89,1111122 
DISL,ioos:station:DISL:KATA:1,2015-06-04T00:30:00Z,30.2583,-88.2131,3.782,5.89,1111122 
DISL,ioos:station:DISL:KATA:1,2015-06-04T01:00:00Z,30.2583,-88.2131,3.767,5.91,1111122 
DISL,ioos:station:DISL:KATA:1,2015-06-04T01:30:00Z,30.2583,-88.2131,3.758,5.67,1111122 
DISL,ioos:station:DISL:KATA:1,2015-06-04T02:00:00Z,30.2583,-88.2131,3.764,5.66,1111122 
DISL,ioos:station:DISL:KATA:1,2015-06-04T02:30:00Z,30.2583,-88.2131,3.774,4.84,1111122 
DISL,ioos:station:DISL:KATA:1,2015-06-04T03:00:00Z,30.2583,-88.2131,3.785,4.98,1111122 
DISL,ioos:station:DISL:KATA:1,2015-06-04T03:30:00Z,30.2583,-88.2131,3.808,4.82,1111122 
DISL,ioos:station:DISL:KATA:1,2015-06-04T04:00:00Z,30.2583,-88.2131,3.82,5.29,1111122 
DISL,ioos:station:DISL:KATA:1,2015-06-04T04:30:00Z,30.2583,-88.2131,3.828,5.18,1111122 
DISL,ioos:station:DISL:KATA:1,2015-06-04T05:00:00Z,30.2583,-88.2131,3.844,5.32,1111122 
DISL,ioos:station:DISL:KATA:1,2015-06-04T05:30:00Z,30.2583,-88.2131,3.876,5.09,1111122 
DISL,ioos:station:DISL:KATA:1,2015-06-04T06:00:00Z,30.2583,-88.2131,3.912,5.01,1111122 
DISL,ioos:station:DISL:KATA:1,2015-06-04T06:30:00Z,30.2583,-88.2131,3.931,5.28,1111122 
DISL,ioos:station:DISL:KATA:1,2015-06-04T07:00:00Z,30.2583,-88.2131,3.955,5.1,1111122 
DISL,ioos:station:DISL:KATA:1,2015-06-04T07:30:00Z,30.2583,-88.2131,3.984,5.03,1111122 
DISL,ioos:station:DISL:KATA:1,2015-06-04T08:00:00Z,30.2583,-88.2131,4.017,5.04,1111122 
DISL,ioos:station:DISL:KATA:1,2015-06-04T08:30:00Z,30.2583,-88.2131,4.036,5.12,1111122 
DISL,ioos:station:DISL:KATA:1,2015-06-04T09:00:00Z,30.2583,-88.2131,4.052,4.83,1111122 
DISL,ioos:station:DISL:KATA:1,2015-06-04T09:30:00Z,30.2583,-88.2131,4.078,4.76,1111122 
DISL,ioos:station:DISL:KATA:1,2015-06-04T10:00:00Z,30.2583,-88.2131,4.099,4.86,1111122 
DISL,ioos:station:DISL:KATA:1,2015-06-04T10:30:00Z,30.2583,-88.2131,4.121,4.92,1111122 
DISL,ioos:station:DISL:KATA:1,2015-06-04T11:00:00Z,30.2583,-88.2131,4.144,4.88,1111122 
DISL,ioos:station:DISL:KATA:1,2015-06-04T11:30:00Z,30.2583,-88.2131,4.165,4.83,1111122 
DISL,ioos:station:DISL:KATA:1,2015-06-04T12:00:00Z,30.2583,-88.2131,4.197,4.76,1111122 
DISL,ioos:station:DISL:KATA:1,2015-06-04T12:30:00Z,30.2583,-88.2131,4.227,4.73,1111122 
DISL,ioos:station:DISL:KATA:1,2015-06-04T13:00:00Z,30.2583,-88.2131,4.263,4.77,1111122 
DISL,ioos:station:DISL:KATA:1,2015-06-04T13:30:00Z,30.2583,-88.2131,4.302,4.83,1111122 
DISL,ioos:station:DISL:KATA:1,2015-06-04T14:00:00Z,30.2583,-88.2131,4.34,4.81,1111122 
DISL,ioos:station:DISL:KATA:1,2015-06-04T14:30:00Z,30.2583,-88.2131,4.38,4.77,1111122 
DISL,ioos:station:DISL:KATA:1,2015-06-04T15:00:00Z,30.2583,-88.2131,4.414,4.78,1111122 
DISL,ioos:station:DISL:KATA:1,2015-06-04T15:30:00Z,30.2583,-88.2131,4.444,4.69,1111122 
DISL,ioos:station:DISL:KATA:1,2015-06-04T16:00:00Z,30.2583,-88.2131,4.449,4.54,1111122 
DISL,ioos:station:DISL:KATA:1,2015-06-04T16:30:00Z,30.2583,-88.2131,4.437,4.43,1111122 
DISL,ioos:station:DISL:KATA:1,2015-06-04T17:00:00Z,30.2583,-88.2131,4.404,4.35,1111122 
DISL,ioos:station:DISL:KATA:1,2015-06-04T17:30:00Z,30.2583,-88.2131,4.372,4.02,1111122 
DISL,ioos:station:DISL:KATA:1,2015-06-04T18:00:00Z,30.2583,-88.2131,4.341,4.31,1111122 
DISL,ioos:station:DISL:KATA:1,2015-06-04T18:30:00Z,30.2583,-88.2131,4.315,4.02,1111122 
DISL,ioos:station:DISL:KATA:1,2015-06-04T19:00:00Z,30.2583,-88.2131,4.296,4.17,1111122 
DISL,ioos:station:DISL:KATA:1,2015-06-04T19:30:00Z,30.2583,-88.2131,4.273,4.14,1111122 
DISL,ioos:station:DISL:KATA:1,2015-06-04T20:00:00Z,30.2583,-88.2131,4.248,4.33,1111122 
DISL,ioos:station:DISL:KATA:1,2015-06-04T20:30:00Z,30.2583,-88.2131,4.208,4.61,1111122 
DISL,ioos:station:DISL:KATA:1,2015-06-04T21:00:00Z,30.2583,-88.2131,4.152,4.68,1111122 
DISL,ioos:station:DISL:KATA:1,2015-06-04T21:30:00Z,30.2583,-88.2131,4.096,4.72,1111122 
DISL,ioos:station:DISL:KATA:1,2015-06-04T22:00:00Z,30.2583,-88.2131,4.033,4.76,1111122 
DISL,ioos:station:DISL:KATA:1,2015-06-04T22:30:00Z,30.2583,-88.2131,3.97,4.91,1111122 
DISL,ioos:station:DISL:KATA:1,2015-06-04T23:00:00Z,30.2583,-88.2131,3.917,5.11,1111122 
DISL,ioos:station:DISL:KATA:1,2015-06-04T23:30:00Z,30.2583,-88.2131,3.864,5.63,1111122 
DISL,ioos:station:DISL:KATA:1,2015-06-05T00:00:00Z,30.2583,-88.2131,3.821,5.61,1111122 
DISL,ioos:station:DISL:KATA:1,2015-06-05T00:30:00Z,30.2583,-88.2131,3.783,5.6,1111122 
DISL,ioos:station:DISL:KATA:1,2015-06-05T01:00:00Z,30.2583,-88.2131,3.757,5.54,1111122 
DISL,ioos:station:DISL:KATA:1,2015-06-05T01:30:00Z,30.2583,-88.2131,3.734,5.22,1111122 
DISL,ioos:station:DISL:KATA:1,2015-06-05T02:00:00Z,30.2583,-88.2131,3.729,4.59,1111122 
DISL,ioos:station:DISL:KATA:1,2015-06-05T02:30:00Z,30.2583,-88.2131,3.742,4.26,1111122 
DISL,ioos:station:DISL:KATA:1,2015-06-05T03:00:00Z,30.2583,-88.2131,3.739,4.65,1111122 
DISL,ioos:station:DISL:KATA:1,2015-06-05T03:30:00Z,30.2583,-88.2131,3.751,4.26,1111122 
DISL,ioos:station:DISL:KATA:1,2015-06-05T04:00:00Z,30.2583,-88.2131,3.759,4.33,1111122 
DISL,ioos:station:DISL:KATA:1,2015-06-05T04:30:00Z,30.2583,-88.2131,3.757,4.25,1111122 
DISL,ioos:station:DISL:KATA:1,2015-06-05T05:00:00Z,30.2583,-88.2131,3.771,3.99,1111122 
DISL,ioos:station:DISL:KATA:1,2015-06-05T05:30:00Z,30.2583,-88.2131,3.78,4.05,1111122 
DISL,ioos:station:DISL:KATA:1,2015-06-05T06:00:00Z,30.2583,-88.2131,3.804,4.07,1111122 
DISL,ioos:station:DISL:KATA:1,2015-06-05T06:30:00Z,30.2583,-88.2131,3.858,3.94,1111122 
DISL,ioos:station:DISL:KATA:1,2015-06-05T07:00:00Z,30.2583,-88.2131,3.912,3.86,1111122 
DISL,ioos:station:DISL:KATA:1,2015-06-05T07:30:00Z,30.2583,-88.2131,3.93,3.93,1111122 
DISL,ioos:station:DISL:KATA:1,2015-06-05T08:00:00Z,30.2583,-88.2131,3.962,4.01,1111122 
DISL,ioos:station:DISL:KATA:1,2015-06-05T08:30:00Z,30.2583,-88.2131,3.993,4.06,1111122 
DISL,ioos:station:DISL:KATA:1,2015-06-05T09:00:00Z,30.2583,-88.2131,4.014,3.92,1111122 
DISL,ioos:station:DISL:KATA:1,2015-06-05T09:30:00Z,30.2583,-88.2131,4.037,3.97,1111122 
DISL,ioos:station:DISL:KATA:1,2015-06-05T10:00:00Z,30.2583,-88.2131,4.065,4.02,1111122 
DISL,ioos:station:DISL:KATA:1,2015-06-05T10:30:00Z,30.2583,-88.2131,4.088,4.07,1111122 
DISL,ioos:station:DISL:KATA:1,2015-06-05T11:00:00Z,30.2583,-88.2131,4.11,4.08,1111122 
DISL,ioos:station:DISL:KATA:1,2015-06-05T11:30:00Z,30.2583,-88.2131,4.127,4.06,1111122 
DISL,ioos:station:DISL:KATA:1,2015-06-05T12:00:00Z,30.2583,-88.2131,4.139,4.13,1111122 
DISL,ioos:station:DISL:KATA:1,2015-06-05T12:30:00Z,30.2583,-88.2131,4.162,4.05,1111122 
DISL,ioos:station:DISL:KATA:1,2015-06-05T13:00:00Z,30.2583,-88.2131,4.187,4.11,1111122 
DISL,ioos:station:DISL:KATA:1,2015-06-05T13:30:00Z,30.2583,-88.2131,4.219,3.98,1111122 
DISL,ioos:station:DISL:KATA:1,2015-06-05T14:00:00Z,30.2583,-88.2131,4.241,4.02,1111122 
DISL,ioos:station:DISL:KATA:1,2015-06-05T14:30:00Z,30.2583,-88.2131,4.273,4.05,1111122 
DISL,ioos:station:DISL:KATA:1,2015-06-05T15:00:00Z,30.2583,-88.2131,4.303,4.0,1111122 
DISL,ioos:station:DISL:KATA:1,2015-06-05T15:30:00Z,30.2583,-88.2131,4.326,4.13,1111122 
DISL,ioos:station:DISL:KATA:1,2015-06-05T16:00:00Z,30.2583,-88.2131,4.34,4.23,1111122 
DISL,ioos:station:DISL:KATA:1,2015-06-05T16:30:00Z,30.2583,-88.2131,4.353,4.19,1111122 
DISL,ioos:station:DISL:KATA:1,2015-06-05T17:00:00Z,30.2583,-88.2131,4.35,4.11,1111122 
DISL,ioos:station:DISL:KATA:1,2015-06-05T17:30:00Z,30.2583,-88.2131,4.338,4.3,1111122 
DISL,ioos:station:DISL:KATA:1,2015-06-05T18:00:00Z,30.2583,-88.2131,4.318,4.35,1111122 
DISL,ioos:station:DISL:KATA:1,2015-06-05T18:30:00Z,30.2583,-88.2131,4.3,4.19,1111122 
DISL,ioos:station:DISL:KATA:1,2015-06-05T19:00:00Z,30.2583,-88.2131,4.28,4.01,1111122 
DISL,ioos:station:DISL:KATA:1,2015-06-05T19:30:00Z,30.2583,-88.2131,4.247,4.24,1111122 
DISL,ioos:station:DISL:KATA:1,2015-06-05T20:00:00Z,30.2583,-88.2131,4.227,3.73,1111122 
DISL,ioos:station:DISL:KATA:1,2015-06-05T20:30:00Z,30.2583,-88.2131,4.205,4.12,1111122 
DISL,ioos:station:DISL:KATA:1,2015-06-05T21:00:00Z,30.2583,-88.2131,4.175,3.92,1111122 
DISL,ioos:station:DISL:KATA:1,2015-06-05T21:30:00Z,30.2583,-88.2131,4.129,4.12,1111122 
DISL,ioos:station:DISL:KATA:1,2015-06-05T22:00:00Z,30.2583,-88.2131,4.081,4.56,1111122 
DISL,ioos:station:DISL:KATA:1,2015-06-05T22:30:00Z,30.2583,-88.2131,4.027,4.17,1111122 
DISL,ioos:station:DISL:KATA:1,2015-06-05T23:00:00Z,30.2583,-88.2131,3.979,4.02,1111122 
DISL,ioos:station:DISL:KATA:1,2015-06-05T23:30:00Z,30.2583,-88.2131,3.927,4.05,1111122 
DISL,ioos:station:DISL:KATA:1,2015-06-06T00:00:00Z,30.2583,-88.2131,3.876,4.11,1111122 
DISL,ioos:station:DISL:KATA:1,2015-06-06T00:30:00Z,30.2583,-88.2131,3.833,4.21,1111122 
DISL,ioos:station:DISL:KATA:1,2015-06-06T01:00:00Z,30.2583,-88.2131,3.801,4.3,1111122 
DISL,ioos:station:DISL:KATA:1,2015-06-06T01:30:00Z,30.2583,-88.2131,3.777,4.22,1111122 
DISL,ioos:station:DISL:KATA:1,2015-06-06T02:00:00Z,30.2583,-88.2131,3.757,4.25,1111122 
DISL,ioos:station:DISL:KATA:1,2015-06-06T02:30:00Z,30.2583,-88.2131,3.758,3.78,1111122 
DISL,ioos:station:DISL:KATA:1,2015-06-06T03:00:00Z,30.2583,-88.2131,3.753,3.26,1111122 
DISL,ioos:station:DISL:KATA:1,2015-06-06T03:30:00Z,30.2583,-88.2131,3.756,3.19,1111122 
DISL,ioos:station:DISL:KATA:1,2015-06-06T04:00:00Z,30.2583,-88.2131,3.763,3.18,1111122 
DISL,ioos:station:DISL:KATA:1,2015-06-06T04:30:00Z,30.2583,-88.2131,3.763,2.95,1111122 
DISL,ioos:station:DISL:KATA:1,2015-06-06T05:00:00Z,30.2583,-88.2131,3.764,2.96,1111122 
DISL,ioos:station:DISL:KATA:1,2015-06-06T05:30:00Z,30.2583,-88.2131,3.764,3.27,1111122 
DISL,ioos:station:DISL:KATA:1,2015-06-06T06:00:00Z,30.2583,-88.2131,3.774,3.02,1111122 
DISL,ioos:station:DISL:KATA:1,2015-06-06T06:30:00Z,30.2583,-88.2131,3.791,3.26,1111122 
DISL,ioos:station:DISL:KATA:1,2015-06-06T07:00:00Z,30.2583,-88.2131,3.811,3.43,1111122 
DISL,ioos:station:DISL:KATA:1,2015-06-06T07:30:00Z,30.2583,-88.2131,3.842,3.47,1111122 
DISL,ioos:station:DISL:KATA:1,2015-06-06T08:00:00Z,30.2583,-88.2131,3.881,3.56,1111122 
DISL,ioos:station:DISL:KATA:1,2015-06-06T08:30:00Z,30.2583,-88.2131,3.906,3.65,1111122 
DISL,ioos:station:DISL:KATA:1,2015-06-06T09:00:00Z,30.2583,-88.2131,3.935,3.6,1111122 
DISL,ioos:station:DISL:KATA:1,2015-06-06T09:30:00Z,30.2583,-88.2131,3.969,3.43,1111122 
DISL,ioos:station:DISL:KATA:1,2015-06-06T10:00:00Z,30.2583,-88.2131,3.987,3.41,1111122 
DISL,ioos:station:DISL:KATA:1,2015-06-06T10:30:00Z,30.2583,-88.2131,3.995,3.49,1111122 
DISL,ioos:station:DISL:KATA:1,2015-06-06T11:00:00Z,30.2583,-88.2131,4.013,3.46,1111122 
DISL,ioos:station:DISL:KATA:1,2015-06-06T11:30:00Z,30.2583,-88.2131,4.032,3.61,1111122 
DISL,ioos:station:DISL:KATA:1,2015-06-06T12:00:00Z,30.2583,-88.2131,4.059,3.46,1111122 
DISL,ioos:station:DISL:KATA:1,2015-06-06T12:30:00Z,30.2583,-88.2131,4.093,3.46,1111122 
DISL,ioos:station:DISL:KATA:1,2015-06-06T13:00:00Z,30.2583,-88.2131,4.117,3.32,1111122 
DISL,ioos:station:DISL:KATA:1,2015-06-06T13:30:00Z,30.2583,-88.2131,4.14,3.31,1111122 
DISL,ioos:station:DISL:KATA:1,2015-06-06T14:00:00Z,30.2583,-88.2131,4.154,3.35,1111122 
DISL,ioos:station:DISL:KATA:1,2015-06-06T14:30:00Z,30.2583,-88.2131,4.174,3.42,1111122 
DISL,ioos:station:DISL:KATA:1,2015-06-06T15:00:00Z,30.2583,-88.2131,4.195,3.3,1111122 
DISL,ioos:station:DISL:KATA:1,2015-06-06T15:30:00Z,30.2583,-88.2131,4.223,3.53,1111122 